SL-8 R/B, 11736

Orbit data source: Space-Track

SL-8 R/B, 11736 is space debris in LEO originally from a launch on Mon, 17 Mar 1980 UTC launched from the Plesetsk Missile And Space Complex (PKMTR). Debris objects in space refer to the collection of defunct objects orbiting the Earth. Examples of debris include non-operational satellites, rocket bodies, and fragments generated from explosions, collisions, or faulty payload assembly.

Loading next visibility...
SL-8 R/B details
Identifier
11736, 1980-022B
Orbit
LEO
Last TLE update14 hours ago
Origin
Flag of CISRVSN (CIS)
ManufacturerOmsk Av. Zav.
MissionSpacecraft
Bus & MotorS3, Unknown motor
Mass1,434 kg wet, 1,434 kg dry
Launch date (UTC)
1980-03-17 (45 years ago)
Launch vehicleUnknown
Launch site
Plesetsk Missile And Space Complex (PKMTR)
Object type
Payload
Rocket body
Debris
Shape & HBRCyl, 6.57 m
Radar Cross Section14.646 m², Large (>1 m²)

Expand to show TLE details & history

TLE from 14 hours ago
0 SL-8 R/B
1 11736U 80022B   25018.40228415  .00000156  00000-0  14298-3 0  9991
2 11736  82.9408 259.4805 0032051 261.2902  98.4624 13.76741803251918
Epoch: 2025-01-18T09:39Z
Definitive object data (Epoch: 2025-01-18T09:39:17.35Z)
Latitude-0.00005°
Longitude-3.39388°
Altitude981.911 km
Speed7.359 km/s
True Right ascension17h 17m 55s
True Declination0° 00' 00"
Sunlit
Object was in daylight at TLE epoch
Visualization TLE readout
Latitude81.02822°
Longitude47.44924°
Altitude1,012.414 km
Speed7.341 km/s
Apparent Right ascension13h 48m 20s
Apparent Declination35° 27' 48"
Sunlit
Object is in daylight
Visualization observer readout
Local Sidereal Time00:55:13
Azimuth348.902° N
Elevation-13.634°
Doppler factor1
Orbital elements
Apogee altitude996.172 km
Perigee altitude949.052 km
Semi-major axis7,350.749 km
Eccentricity0.0032051
Inclination82.9408°
RAAN259.4805°
Arg. of periapsis261.2902°
True anomaly98.82546°
Mean anomaly98.4624°
Eccentric anomaly98.64395°
Mean motion3.44386 °/min
BSTAR0.00014298
Orbital period104.53 mins
Loading maneuver chart data...
Loading historical data...
Loading historical data...
Loading historical data...
Loading historical data...
Loading historical data...
Loading historical data...
Loading historical data...
Other satellites on launch #22 in the year 1980 (1980-03-17 UTC)

SL-8 R/B Visibility forecast

Observer location: undefined°, undefined

Span
Click to sort rows by Start time (UTC) header in descending order
Start Az.
Max El. time (UTC)
Max El. Az.
Max El.
End time (UTC)
End Az.
10 mins2025-01-19 03:42:07.853Z358.996° N2025-01-19 03:46:07.853Z47.858° ENE43.599°2025-01-19 03:52:07.853Z167.201° S
5 mins2025-01-19 05:29:07.853Z300.126° NW2025-01-19 05:31:07.853Z279.096° WNW14.776°2025-01-19 05:34:07.853Z249.085° W
7 mins2025-01-19 15:27:07.853Z121.475° SE2025-01-19 15:30:07.853Z84.132° E22.425°2025-01-19 15:34:07.853Z38.973° NE
11 mins2025-01-19 17:10:07.853Z211.342° SW2025-01-19 17:15:07.853Z283.418° WNW37.016°2025-01-19 17:21:07.853Z356.018° N
|